917  
NZUS99 KSGF 160657  
HRRSGF  
 
HOURLY WEATHER  
NATIONAL WEATHER SERVICE SPRINGFIELD MO  
200 AM CDT THU AUG 16 2018  
   
.....SGF CWA...
 
 
 
CITY SKY/WX TMP DP RH WIND PRES REMARKS  
SPRINGFIELD MOCLDY 74 72 93 S7 29.94F  
JOPLIN PTCLDY 72 70 93 S3 29.94F  
WEST PLAINS CLOUDY 73 71 93 S3 29.97F  
ROLLA CLOUDY 71 69 93 SW7 29.93F  
   
.....SURROUNDING SGF CWA...
 
 
 
CITY SKY/WX TMP DP RH WIND PRES REMARKS  
CHANUTE CLEAR 68 68 100 SW3 29.94F  
PARSONS PTCLDY 68 67 96 CALM 29.95F  
COFFEYVILLE CLEAR 71 69 93 CALM 29.91F  
EMPORIA CLEAR 69 65 86 W5 29.94F  
HARRISON AR MOCLDY 74 73 97 CALM 29.97F  
   
.....KANSAS AND MISSOURI...
 
 
 
CITY SKY/WX TMP DP RH WIND PRES REMARKS  
KANSAS CTY INT CLEAR 71 69 93 CALM 29.91F  
SEDALIA MOCLDY 75 73 93 SW5 29.92F  
ST JOSEPH CLEAR 73 72 96 CALM 29.91F  
ST LOUIS MOCLDY 75 71 87 SW8 29.91F  
WICHITA PTCLDY 70 69 97 S5 29.95S  
TOPEKA CLEAR 74 72 93 CALM 29.91F  
OLATHE CLEAR 73 71 93 CALM 29.92F  
   
.....TENNESSEE...
 
 
 
CITY SKY/WX TMP DP RH WIND PRES REMARKS  
MEMPHIS NOT AVBL  
NASHVILLE MOCLDY 75 66 73 S6 30.03F  
   
.....ARKANSAS....
 
 
 
CITY SKY/WX TMP DP RH WIND PRES REMARKS  
FAYETTEVILLE MOCLDY 73 73 100 SW5 29.97F  
FT SMITH CLEAR 73 72 96 CALM 29.93F  
LITTLE ROCK FAIR 80 73 79 SW12 29.94F  
   
.....OKLAHOMA....
 
 
 
CITY SKY/WX TMP DP RH WIND PRES REMARKS  
TULSA CLEAR 75 71 87 CALM 29.93S  
PONCA CITY CLEAR 70 67 90 S3 29.95S  
MCALESTER PTCLDY 77 73 87 CALM 29.94F  
OKLAHOMA CITY PTCLDY 74 70 87 CALM 29.96S  
   
.....IOWA.........
 
 
 
CITY SKY/WX TMP DP RH WIND PRES REMARKS  
DES MOINES NOT AVBL  
QUAD CITIES MOCLDY 72 70 93 E6 29.89F  
   
.....ILLINOIS.....
 
 
 
CITY SKY/WX TMP DP RH WIND PRES REMARKS  
QUINCY NOT AVBL  
CHICAGO MOCLDY 72 68 87 SE3 29.91F  
 
 
 
CLICK HERE TO GO TO PREVIOUS BULLETINS.

The Nexlab MO Page
The Nexlab KS Page Main Text Page